Time,TemperatureF,DewpointF,PressureIn,WindDirection,WindDirectionDegrees,WindSpeedMPH,WindSpeedGustMPH,Humidity,HourlyPrecipIn,Conditions,Clouds,dailyrainin,SoftwareType,DateUTC
2013-09-27 00:04:00,47.8,44.2,28.82,SW,222,2.7,8.1,87,0.00,,---,0.00,VWS V13.00,2013-09-27 08:04:00,
2013-09-27 00:09:00,47.8,44.5,28.82,WSW,254,11.0,11.0,88,0.00,,---,0.00,VWS V13.00,2013-09-27 08:09:00,
2013-09-27 00:14:00,47.8,44.5,28.79,West,279,0.0,11.0,88,0.00,,---,0.00,VWS V13.00,2013-09-27 08:14:00,
2013-09-27 00:19:00,47.8,44.5,28.79,SSW,209,0.0,11.0,88,0.00,,---,0.00,VWS V13.00,2013-09-27 08:19:00,
2013-09-27 00:24:00,47.8,44.5,28.79,WSW,257,8.3,8.3,88,0.00,,---,0.00,VWS V13.00,2013-09-27 08:24:00,
2013-09-27 00:29:00,47.8,44.5,28.79,West,265,0.0,8.3,88,0.00,,---,0.00,VWS V13.00,2013-09-27 08:29:00,
2013-09-27 00:34:00,47.8,44.5,28.76,WSW,247,3.1,8.3,88,0.00,,---,0.00,VWS V13.00,2013-09-27 08:34:00,
2013-09-27 00:39:00,47.8,44.5,28.76,WSW,246,4.0,8.3,88,0.00,,---,0.00,VWS V13.00,2013-09-27 08:39:00,
2013-09-27 00:44:00,47.8,44.5,28.76,WSW,245,3.6,6.3,88,0.00,,---,0.00,VWS V13.00,2013-09-27 08:44:00,
2013-09-27 00:49:00,47.8,44.5,28.76,SW,225,0.0,8.7,88,0.00,,---,0.00,VWS V13.00,2013-09-27 08:49:00,
2013-09-27 00:54:00,47.8,44.5,28.76,West,267,5.8,8.7,88,0.00,,---,0.00,VWS V13.00,2013-09-27 08:54:00,
2013-09-27 00:58:00,47.8,44.5,28.73,SW,214,0.0,8.7,88,0.00,,---,0.00,VWS V13.00,2013-09-27 08:58:00,
2013-09-27 01:03:00,47.8,44.5,28.73,WSW,248,0.0,0.0,88,0.00,,---,0.00,VWS V13.00,2013-09-27 09:03:00,
2013-09-27 01:08:00,47.8,44.5,28.73,West,259,0.0,3.6,88,0.00,,---,0.00,VWS V13.00,2013-09-27 09:08:00,
2013-09-27 01:13:00,47.8,44.5,28.73,West,260,0.0,3.6,88,0.00,,---,0.00,VWS V13.00,2013-09-27 09:13:00,
2013-09-27 01:18:00,47.8,44.5,28.70,WSW,258,0.0,3.6,88,0.00,,---,0.00,VWS V13.00,2013-09-27 09:18:00,
2013-09-27 01:23:00,47.8,44.5,28.70,WSW,258,0.0,0.0,88,0.00,,---,0.00,VWS V13.00,2013-09-27 09:23:00,
2013-09-27 01:28:00,47.8,44.5,28.70,West,270,0.0,0.0,88,0.00,,---,0.00,VWS V13.00,2013-09-27 09:28:00,
2013-09-27 01:33:00,47.8,44.5,28.70,WSW,253,0.0,0.0,88,0.00,,---,0.00,VWS V13.00,2013-09-27 09:33:00,
2013-09-27 01:38:00,47.8,44.5,28.70,WSW,253,0.0,0.0,88,0.00,,---,0.00,VWS V13.00,2013-09-27 09:38:00,
2013-09-27 01:43:00,47.8,44.5,28.70,WSW,253,0.0,0.0,88,0.00,,---,0.00,VWS V13.00,2013-09-27 09:43:00,
2013-09-27 01:48:00,47.8,44.5,28.70,West,261,0.0,0.0,88,0.00,,---,0.00,VWS V13.00,2013-09-27 09:48:00,
2013-09-27 01:53:00,47.8,44.5,28.70,West,259,3.1,3.1,88,0.00,,---,0.00,VWS V13.00,2013-09-27 09:53:00,
2013-09-27 01:58:00,47.8,44.5,28.70,WNW,301,0.0,3.1,88,0.00,,---,0.00,VWS V13.00,2013-09-27 09:58:00,
2013-09-27 02:03:00,47.8,44.5,28.64,WSW,255,0.0,0.0,88,0.00,,---,0.00,VWS V13.00,2013-09-27 10:03:00,
2013-09-27 02:08:00,47.8,44.8,28.64,WSW,255,0.0,0.0,89,0.00,,---,0.00,VWS V13.00,2013-09-27 10:08:00,
2013-09-27 02:13:00,47.8,44.8,28.64,WSW,253,0.0,0.0,89,0.00,,---,0.00,VWS V13.00,2013-09-27 10:13:00,
2013-09-27 02:19:00,47.8,44.8,28.64,WSW,246,0.0,2.2,89,0.00,,---,0.00,VWS V13.00,2013-09-27 10:19:00,
2013-09-27 02:24:00,47.8,44.8,28.64,WSW,245,0.0,0.0,89,0.00,,---,0.00,VWS V13.00,2013-09-27 10:24:00,
2013-09-27 02:29:00,47.8,44.8,28.64,SW,230,0.0,3.1,89,0.00,,---,0.00,VWS V13.00,2013-09-27 10:29:00,
2013-09-27 02:34:00,47.8,44.8,28.64,SW,222,0.0,3.6,89,0.00,,---,0.00,VWS V13.00,2013-09-27 10:34:00,
2013-09-27 02:39:00,48.0,44.9,28.61,West,262,0.0,3.6,89,0.00,,---,0.00,VWS V13.00,2013-09-27 10:39:00,
2013-09-27 02:44:00,48.0,44.9,28.61,West,267,0.0,0.0,89,0.00,,---,0.00,VWS V13.00,2013-09-27 10:44:00,
2013-09-27 02:49:00,48.0,44.9,28.61,West,267,0.0,0.0,89,0.00,,---,0.00,VWS V13.00,2013-09-27 10:49:00,
2013-09-27 02:54:00,48.0,44.9,28.61,West,263,0.0,0.0,89,0.00,,---,0.00,VWS V13.00,2013-09-27 10:54:00,
2013-09-27 02:59:00,48.0,44.9,28.61,West,263,0.0,0.0,89,0.00,,---,0.00,VWS V13.00,2013-09-27 10:59:00,
2013-09-27 03:04:00,48.0,44.9,28.59,WSW,254,0.0,0.0,89,0.00,,---,0.00,VWS V13.00,2013-09-27 11:04:00,
2013-09-27 03:09:00,48.0,44.9,28.59,WSW,253,0.0,0.0,89,0.00,,---,0.00,VWS V13.00,2013-09-27 11:09:00,
2013-09-27 03:14:00,47.8,44.8,28.59,WSW,253,0.0,0.0,89,0.00,,---,0.00,VWS V13.00,2013-09-27 11:14:00,
2013-09-27 03:19:00,48.0,44.9,28.59,WSW,253,0.0,0.0,89,0.00,,---,0.00,VWS V13.00,2013-09-27 11:19:00,
2013-09-27 03:24:00,47.8,44.8,28.59,WSW,253,0.0,0.0,89,0.00,,---,0.00,VWS V13.00,2013-09-27 11:24:00,
2013-09-27 03:29:00,47.8,44.8,28.59,WSW,253,0.0,0.0,89,0.00,,---,0.00,VWS V13.00,2013-09-27 11:29:00,
2013-09-27 03:34:00,47.8,44.8,28.59,WSW,253,0.0,0.0,89,0.00,,---,0.00,VWS V13.00,2013-09-27 11:34:00,
2013-09-27 03:39:00,47.8,44.8,28.56,WSW,253,0.0,0.0,89,0.00,,---,0.00,VWS V13.00,2013-09-27 11:39:00,
2013-09-27 03:44:00,47.8,44.8,28.56,WSW,253,0.0,0.0,89,0.00,,---,0.00,VWS V13.00,2013-09-27 11:44:00,
2013-09-27 03:49:00,47.8,44.8,28.56,WSW,253,0.0,0.0,89,0.00,,---,0.00,VWS V13.00,2013-09-27 11:49:00,
2013-09-27 03:54:00,47.8,44.8,28.56,WSW,253,0.0,0.0,89,0.00,,---,0.00,VWS V13.00,2013-09-27 11:54:00,
2013-09-27 03:59:00,47.8,44.8,28.56,WSW,253,0.0,0.0,89,0.00,,---,0.00,VWS V13.00,2013-09-27 11:59:00,
2013-09-27 04:04:00,47.8,44.8,28.53,WSW,253,0.0,0.0,89,0.00,,---,0.00,VWS V13.00,2013-09-27 12:04:00,
2013-09-27 04:09:00,47.8,44.8,28.53,WSW,253,0.0,0.0,89,0.00,,---,0.00,VWS V13.00,2013-09-27 12:09:00,
2013-09-27 04:14:00,47.8,44.8,28.53,WSW,253,0.0,0.0,89,0.00,,---,0.00,VWS V13.00,2013-09-27 12:14:00,
2013-09-27 04:19:00,47.8,44.8,28.53,WSW,253,0.0,0.0,89,0.00,,---,0.00,VWS V13.00,2013-09-27 12:19:00,
2013-09-27 04:24:00,47.8,44.8,28.53,WSW,253,0.0,0.0,89,0.00,,---,0.00,VWS V13.00,2013-09-27 12:24:00,
2013-09-27 04:29:00,47.8,44.8,28.53,WSW,253,0.0,0.0,89,0.00,,---,0.00,VWS V13.00,2013-09-27 12:29:00,
2013-09-27 04:34:00,47.7,44.6,28.50,WSW,253,0.0,0.0,89,0.00,,---,0.00,VWS V13.00,2013-09-27 12:34:00,
2013-09-27 04:39:00,47.7,44.6,28.50,WSW,253,0.0,0.0,89,0.00,,---,0.00,VWS V13.00,2013-09-27 12:39:00,
2013-09-27 04:44:00,47.7,44.6,28.50,East,99,0.0,0.0,89,0.00,,---,0.00,VWS V13.00,2013-09-27 12:44:00,
2013-09-27 04:49:00,47.7,44.6,28.50,ESE,116,0.0,0.0,89,0.00,,---,0.00,VWS V13.00,2013-09-27 12:49:00,
2013-09-27 04:54:00,47.5,44.4,28.50,East,101,0.0,0.0,89,0.00,,---,0.00,VWS V13.00,2013-09-27 12:54:00,
2013-09-27 04:59:00,47.5,44.4,28.50,ESE,108,0.0,0.0,89,0.00,,---,0.00,VWS V13.00,2013-09-27 12:59:00,
2013-09-27 05:04:00,47.5,44.4,28.50,ESE,110,0.0,0.0,89,0.00,,---,0.00,VWS V13.00,2013-09-27 13:04:00,
2013-09-27 05:09:00,47.5,44.4,28.50,ESE,108,0.0,0.0,89,0.00,,---,0.00,VWS V13.00,2013-09-27 13:09:00,
2013-09-27 05:14:00,47.3,44.2,28.50,ESE,102,0.0,0.0,89,0.00,,---,0.00,VWS V13.00,2013-09-27 13:14:00,
2013-09-27 05:19:00,47.3,44.2,28.50,East,93,0.0,0.0,89,0.00,,---,0.00,VWS V13.00,2013-09-27 13:19:00,
2013-09-27 05:24:00,47.3,44.2,28.50,East,93,0.0,0.0,89,0.00,,---,0.00,VWS V13.00,2013-09-27 13:24:00,
2013-09-27 05:29:00,47.3,44.2,28.50,East,93,0.0,0.0,89,0.00,,---,0.00,VWS V13.00,2013-09-27 13:29:00,
2013-09-27 05:34:00,47.3,44.2,28.50,East,93,0.0,0.0,89,0.00,,---,0.00,VWS V13.00,2013-09-27 13:34:00,
2013-09-27 05:39:00,47.3,44.2,28.50,East,93,0.0,0.0,89,0.00,,---,0.00,VWS V13.00,2013-09-27 13:39:00,
2013-09-27 05:44:00,47.3,44.2,28.50,East,93,0.0,0.0,89,0.00,,---,0.00,VWS V13.00,2013-09-27 13:44:00,
2013-09-27 05:49:00,47.1,44.0,28.50,East,93,0.0,0.0,89,0.00,,---,0.00,VWS V13.00,2013-09-27 13:49:00,
2013-09-27 05:54:00,47.1,44.0,28.50,NNE,17,0.0,0.0,89,0.00,,---,0.00,VWS V13.00,2013-09-27 13:54:00,
2013-09-27 05:59:00,47.1,44.0,28.50,NNE,17,0.0,0.0,89,0.00,,---,0.00,VWS V13.00,2013-09-27 13:59:00,
2013-09-27 06:04:00,47.1,44.0,28.50,NE,41,0.0,0.0,89,0.00,,---,0.00,VWS V13.00,2013-09-27 14:04:00,
2013-09-27 06:09:00,47.1,44.0,28.50,SE,128,0.0,0.0,89,0.00,,---,0.00,VWS V13.00,2013-09-27 14:09:00,
2013-09-27 06:14:00,47.1,44.0,28.50,NNE,31,0.0,0.0,89,0.00,,---,0.00,VWS V13.00,2013-09-27 14:14:00,
2013-09-27 06:19:00,46.9,43.9,28.50,WNW,292,0.0,0.0,89,0.00,,---,0.00,VWS V13.00,2013-09-27 14:19:00,
2013-09-27 06:24:00,46.9,43.9,28.50,WNW,292,0.0,0.0,89,0.00,,---,0.00,VWS V13.00,2013-09-27 14:24:00,
2013-09-27 06:29:00,46.8,43.7,28.47,ESE,111,0.0,0.0,89,0.00,,---,0.00,VWS V13.00,2013-09-27 14:29:00,
2013-09-27 06:34:00,46.8,43.7,28.47,ENE,75,0.0,0.0,89,0.00,,---,0.00,VWS V13.00,2013-09-27 14:34:00,
2013-09-27 06:39:00,46.8,43.7,28.47,NE,36,0.0,0.0,89,0.00,,---,0.00,VWS V13.00,2013-09-27 14:39:00,
2013-09-27 06:44:00,46.6,43.5,28.47,NE,34,0.0,0.0,89,0.00,,---,0.00,VWS V13.00,2013-09-27 14:44:00,
2013-09-27 06:49:00,46.6,43.5,28.47,SSE,150,0.0,0.0,89,0.00,,---,0.00,VWS V13.00,2013-09-27 14:49:00,
2013-09-27 06:54:00,46.6,43.5,28.44,NNW,345,0.0,0.0,89,0.00,,---,0.00,VWS V13.00,2013-09-27 14:54:00,
2013-09-27 06:59:00,46.6,43.5,28.44,South,176,0.0,3.6,89,0.00,,---,0.00,VWS V13.00,2013-09-27 14:59:00,
2013-09-27 07:04:00,46.6,43.5,28.44,ESE,109,0.0,0.0,89,0.00,,---,0.00,VWS V13.00,2013-09-27 15:04:00,
2013-09-27 07:09:00,46.4,43.3,28.44,NNW,346,0.0,0.0,89,0.00,,---,0.00,VWS V13.00,2013-09-27 15:09:00,
2013-09-27 07:14:00,46.4,43.0,28.44,NNW,346,0.0,0.0,88,0.00,,---,0.00,VWS V13.00,2013-09-27 15:14:00,
2013-09-27 07:19:00,46.4,43.0,28.44,South,176,0.0,0.0,88,0.00,,---,0.00,VWS V13.00,2013-09-27 15:19:00,
2013-09-27 07:24:00,46.4,43.0,28.44,ESE,110,0.0,0.0,88,0.00,,---,0.00,VWS V13.00,2013-09-27 15:24:00,
2013-09-27 07:29:00,46.2,42.9,28.44,East,84,0.0,0.0,88,0.00,,---,0.00,VWS V13.00,2013-09-27 15:29:00,
2013-09-27 07:34:00,46.2,42.9,28.44,South,177,0.0,0.0,88,0.00,,---,0.00,VWS V13.00,2013-09-27 15:34:00,
2013-09-27 07:39:00,46.0,42.7,28.44,ENE,71,0.0,0.0,88,0.00,,---,0.00,VWS V13.00,2013-09-27 15:39:00,
2013-09-27 07:44:00,46.0,42.7,28.44,NNE,22,0.0,0.0,88,0.00,,---,0.00,VWS V13.00,2013-09-27 15:44:00,
2013-09-27 07:49:00,46.0,42.7,28.44,ENE,66,0.0,0.0,88,0.00,,---,0.00,VWS V13.00,2013-09-27 15:49:00,
2013-09-27 07:54:00,46.0,42.4,28.44,ENE,64,0.0,0.0,87,0.00,,---,0.00,VWS V13.00,2013-09-27 15:54:00,
2013-09-27 07:59:00,46.0,42.4,28.44,NNW,329,0.0,0.0,87,0.00,,---,0.00,VWS V13.00,2013-09-27 15:59:00,
2013-09-27 08:04:00,45.9,42.2,28.44,SSW,205,0.0,0.0,87,0.00,,---,0.00,VWS V13.00,2013-09-27 16:04:00,
2013-09-27 08:09:00,45.9,42.2,28.44,NNW,341,0.0,0.0,87,0.00,,---,0.00,VWS V13.00,2013-09-27 16:09:00,
2013-09-27 08:14:00,45.9,42.2,28.44,SE,146,0.0,0.0,87,0.00,,---,0.00,VWS V13.00,2013-09-27 16:14:00,
2013-09-27 08:19:00,45.9,42.2,28.44,SSW,212,0.0,0.0,87,0.00,,---,0.00,VWS V13.00,2013-09-27 16:19:00,
2013-09-27 08:24:00,45.9,42.2,28.44,SW,221,0.0,0.0,87,0.00,,---,0.00,VWS V13.00,2013-09-27 16:24:00,
2013-09-27 08:29:00,45.9,41.9,28.44,SE,142,7.6,7.6,86,0.00,,---,0.00,VWS V13.00,2013-09-27 16:29:00,
2013-09-27 08:34:00,45.7,41.7,28.44,SSE,160,6.3,7.6,86,0.00,,---,0.00,VWS V13.00,2013-09-27 16:34:00,
2013-09-27 08:39:00,45.7,41.7,28.44,SE,141,0.0,7.6,86,0.00,,---,0.00,VWS V13.00,2013-09-27 16:39:00,
2013-09-27 08:44:00,45.7,40.8,28.44,East,101,6.3,6.3,83,0.00,,---,0.00,VWS V13.00,2013-09-27 16:44:00,
2013-09-27 08:49:00,45.9,41.0,28.44,SE,145,0.0,6.3,83,0.00,,---,0.00,VWS V13.00,2013-09-27 16:49:00,
2013-09-27 08:54:00,45.9,40.7,28.44,SE,145,0.0,6.3,82,0.00,,---,0.00,VWS V13.00,2013-09-27 16:54:00,
2013-09-27 08:59:00,45.7,40.5,28.44,ESE,104,4.9,6.3,82,0.00,,---,0.00,VWS V13.00,2013-09-27 16:59:00,
2013-09-27 09:04:00,45.5,39.0,28.44,ESE,116,5.4,5.4,78,0.00,,---,0.00,VWS V13.00,2013-09-27 17:04:00,
2013-09-27 09:09:00,45.5,39.0,28.44,ESE,120,5.4,5.8,78,0.00,,---,0.00,VWS V13.00,2013-09-27 17:09:00,
2013-09-27 09:14:00,45.5,38.4,28.44,SE,145,8.1,8.1,76,0.00,,---,0.00,VWS V13.00,2013-09-27 17:14:00,
2013-09-27 09:19:00,45.5,38.4,28.44,SE,141,0.0,8.1,76,0.00,,---,0.00,VWS V13.00,2013-09-27 17:19:00,
2013-09-27 09:24:00,45.5,38.4,28.44,South,170,10.1,10.1,76,0.00,,---,0.00,VWS V13.00,2013-09-27 17:24:00,
2013-09-27 09:26:00,45.5,38.4,28.44,SE,143,3.6,10.1,76,0.00,,---,0.00,VWS V13.00,2013-09-27 17:26:00,
2013-09-27 09:31:00,45.7,37.5,28.44,East,95,5.4,11.4,73,0.00,,---,0.00,VWS V13.00,2013-09-27 17:31:00,
2013-09-27 09:36:00,45.7,37.9,28.44,SE,125,5.4,11.4,74,0.00,,---,0.00,VWS V13.00,2013-09-27 17:36:00,
2013-09-27 09:41:00,45.9,38.0,28.44,SE,124,0.0,4.0,74,0.00,,---,0.00,VWS V13.00,2013-09-27 17:41:00,
2013-09-27 09:46:00,46.0,38.2,28.44,SE,132,0.0,4.0,74,0.00,,---,0.00,VWS V13.00,2013-09-27 17:46:00,
2013-09-27 09:51:00,46.0,38.2,28.44,East,91,11.4,11.4,74,0.00,,---,0.00,VWS V13.00,2013-09-27 17:51:00,
2013-09-27 09:56:00,46.0,37.9,28.44,SSE,156,2.7,13.2,73,0.00,,---,0.00,VWS V13.00,2013-09-27 17:56:00,
2013-09-27 10:01:00,46.0,37.9,28.44,SE,128,3.6,3.6,73,0.00,,---,0.00,VWS V13.00,2013-09-27 18:01:00,
2013-09-27 10:06:00,46.2,38.4,28.44,SSE,164,0.0,3.6,74,0.00,,---,0.00,VWS V13.00,2013-09-27 18:06:00,
2013-09-27 10:11:00,46.2,38.4,28.44,West,271,0.0,3.6,74,0.00,,---,0.00,VWS V13.00,2013-09-27 18:11:00,
2013-09-27 10:16:00,46.2,38.4,28.44,NNE,24,3.1,3.6,74,0.00,,---,0.00,VWS V13.00,2013-09-27 18:16:00,
2013-09-27 10:21:00,46.2,38.4,28.44,WSW,242,0.0,0.0,74,0.00,,---,0.00,VWS V13.00,2013-09-27 18:21:00,
2013-09-27 10:26:00,46.4,38.6,28.44,WSW,242,0.0,0.0,74,0.00,,---,0.00,VWS V13.00,2013-09-27 18:26:00,
2013-09-27 10:31:00,46.4,38.6,28.44,East,85,2.7,3.1,74,0.00,,---,0.00,VWS V13.00,2013-09-27 18:31:00,
2013-09-27 10:36:00,46.4,38.6,28.44,SE,133,3.1,8.7,74,0.00,,---,0.00,VWS V13.00,2013-09-27 18:36:00,
2013-09-27 10:41:00,46.4,38.6,28.44,ESE,122,0.0,5.8,74,0.00,,---,0.00,VWS V13.00,2013-09-27 18:41:00,
2013-09-27 10:46:00,46.8,39.6,28.44,ESE,117,0.0,5.8,76,0.00,,---,0.00,VWS V13.00,2013-09-27 18:46:00,
2013-09-27 10:51:00,47.1,40.3,28.41,East,87,5.4,5.8,77,0.00,,---,0.00,VWS V13.00,2013-09-27 18:51:00,
2013-09-27 10:56:00,47.3,40.5,28.41,SE,126,0.0,5.8,77,0.00,,---,0.00,VWS V13.00,2013-09-27 18:56:00,
2013-09-27 11:01:00,47.3,40.5,28.41,ESE,104,0.0,6.3,77,0.00,,---,0.00,VWS V13.00,2013-09-27 19:01:00,
2013-09-27 11:06:00,47.3,40.5,28.41,NNE,25,4.9,6.7,77,0.00,,---,0.00,VWS V13.00,2013-09-27 19:06:00,
2013-09-27 11:11:00,47.3,40.5,28.41,NNW,341,0.0,6.7,77,0.00,,---,0.00,VWS V13.00,2013-09-27 19:11:00,
2013-09-27 11:16:00,47.1,40.6,28.44,East,91,7.2,7.2,78,0.00,,---,0.00,VWS V13.00,2013-09-27 19:16:00,
2013-09-27 11:21:00,47.1,40.6,28.44,NE,47,0.0,0.0,78,0.00,,---,0.00,VWS V13.00,2013-09-27 19:21:00,
2013-09-27 11:26:00,47.1,40.6,28.44,ESE,103,8.3,8.3,78,0.00,,---,0.00,VWS V13.00,2013-09-27 19:26:00,
2013-09-27 11:31:00,47.1,41.0,28.44,East,99,4.9,8.3,79,0.00,,---,0.00,VWS V13.00,2013-09-27 19:31:00,
2013-09-27 11:36:00,47.3,41.5,28.44,NNE,31,0.0,8.3,80,0.00,,---,0.00,VWS V13.00,2013-09-27 19:36:00,
2013-09-27 11:41:00,47.3,41.8,28.44,NNE,23,0.0,0.0,81,0.00,,---,0.00,VWS V13.00,2013-09-27 19:41:00,
2013-09-27 11:46:00,47.3,41.8,28.44,ESE,119,0.0,6.3,81,0.00,,---,0.00,VWS V13.00,2013-09-27 19:46:00,
2013-09-27 11:51:00,47.3,41.8,28.44,NW,322,2.7,6.3,81,0.00,,---,0.00,VWS V13.00,2013-09-27 19:51:00,
2013-09-27 11:56:00,47.7,42.8,28.47,NW,325,0.0,6.3,83,0.00,,---,0.00,VWS V13.00,2013-09-27 19:56:00,
2013-09-27 12:01:00,47.7,42.8,28.47,NNE,22,2.7,2.7,83,0.00,,---,0.00,VWS V13.00,2013-09-27 20:01:00,
2013-09-27 12:06:00,47.8,42.9,28.47,NW,314,0.0,2.7,83,0.00,,---,0.00,VWS V13.00,2013-09-27 20:06:00,
2013-09-27 12:11:00,47.8,42.9,28.47,ENE,73,0.0,3.6,83,0.00,,---,0.00,VWS V13.00,2013-09-27 20:11:00,
2013-09-27 12:16:00,47.8,42.9,28.47,NNE,33,0.0,4.5,83,0.00,,---,0.00,VWS V13.00,2013-09-27 20:16:00,
2013-09-27 12:21:00,48.0,43.4,28.47,NNE,28,0.0,0.0,84,0.00,,---,0.00,VWS V13.00,2013-09-27 20:21:00,
2013-09-27 12:26:00,48.2,43.9,28.47,NNE,28,0.0,0.0,85,0.00,,---,0.00,VWS V13.00,2013-09-27 20:26:00,
2013-09-27 12:31:00,48.2,43.9,28.47,NE,38,0.0,7.6,85,0.00,,---,0.00,VWS V13.00,2013-09-27 20:31:00,
2013-09-27 12:36:00,48.2,43.9,28.47,NE,34,0.0,7.6,85,0.00,,---,0.00,VWS V13.00,2013-09-27 20:36:00,
2013-09-27 12:41:00,48.2,43.9,28.47,NNE,20,0.0,0.0,85,0.00,,---,0.00,VWS V13.00,2013-09-27 20:41:00,
2013-09-27 12:46:00,48.2,44.2,28.47,North,357,0.0,0.0,86,0.00,,---,0.00,VWS V13.00,2013-09-27 20:46:00,
2013-09-27 12:51:00,48.2,44.2,28.47,North,357,0.0,0.0,86,0.00,,---,0.00,VWS V13.00,2013-09-27 20:51:00,
2013-09-27 12:56:00,48.2,44.2,28.47,ENE,59,0.0,6.3,86,0.00,,---,0.00,VWS V13.00,2013-09-27 20:56:00,
2013-09-27 13:01:00,48.2,44.2,28.47,NNE,31,0.0,10.1,86,0.00,,---,0.00,VWS V13.00,2013-09-27 21:01:00,
2013-09-27 13:06:00,48.2,44.2,28.47,NE,38,8.3,10.1,86,0.00,,---,0.00,VWS V13.00,2013-09-27 21:06:00,
2013-09-27 13:11:00,48.2,44.5,28.50,NNE,20,3.6,10.1,87,0.00,,---,0.00,VWS V13.00,2013-09-27 21:11:00,
2013-09-27 13:16:00,48.4,45.0,28.50,East,88,0.0,10.1,88,0.00,,---,0.00,VWS V13.00,2013-09-27 21:16:00,
2013-09-27 13:21:00,48.4,45.0,28.50,NNE,25,10.1,10.1,88,0.00,,---,0.00,VWS V13.00,2013-09-27 21:21:00,
2013-09-27 13:26:00,48.4,45.0,28.50,NNE,16,2.2,14.1,88,0.00,,---,0.00,VWS V13.00,2013-09-27 21:26:00,
2013-09-27 13:31:00,48.4,45.0,28.50,ENE,71,5.4,14.1,88,0.00,,---,0.00,VWS V13.00,2013-09-27 21:31:00,
2013-09-27 13:36:00,48.4,45.0,28.53,NE,41,0.0,14.1,88,0.00,,---,0.00,VWS V13.00,2013-09-27 21:36:00,
2013-09-27 13:41:00,48.4,45.0,28.53,NE,45,0.0,6.3,88,0.00,,---,0.00,VWS V13.00,2013-09-27 21:41:00,
2013-09-27 13:46:00,48.4,45.0,28.53,NE,45,5.4,8.7,88,0.00,,---,0.00,VWS V13.00,2013-09-27 21:46:00,
2013-09-27 13:51:00,48.4,45.0,28.53,NNE,13,3.6,8.7,88,0.00,,---,0.00,VWS V13.00,2013-09-27 21:51:00,
2013-09-27 13:56:00,48.4,45.0,28.53,NE,41,8.3,11.4,88,0.00,,---,0.00,VWS V13.00,2013-09-27 21:56:00,
2013-09-27 14:01:00,48.4,45.0,28.53,NE,49,7.6,11.0,88,0.00,,---,0.00,VWS V13.00,2013-09-27 22:01:00,
2013-09-27 14:06:00,48.4,45.0,28.53,NNE,26,7.6,12.8,88,0.00,,---,0.00,VWS V13.00,2013-09-27 22:06:00,
2013-09-27 14:11:00,48.4,45.0,28.53,ENE,65,5.8,12.8,88,0.00,,---,0.00,VWS V13.00,2013-09-27 22:11:00,
2013-09-27 14:16:00,48.4,45.0,28.53,NNE,23,11.0,12.8,88,0.00,,---,0.00,VWS V13.00,2013-09-27 22:16:00,
2013-09-27 14:21:00,48.2,44.8,28.53,NNE,23,11.0,11.0,88,0.00,,---,0.00,VWS V13.00,2013-09-27 22:21:00,
2013-09-27 14:26:00,48.2,44.8,28.53,NNE,21,3.6,11.0,88,0.00,,---,0.00,VWS V13.00,2013-09-27 22:26:00,
2013-09-27 14:31:00,48.2,44.8,28.53,North,357,5.8,11.0,88,0.00,,---,0.00,VWS V13.00,2013-09-27 22:31:00,
2013-09-27 14:36:00,48.2,44.8,28.53,SSW,199,0.0,11.0,88,0.00,,---,0.00,VWS V13.00,2013-09-27 22:36:00,
2013-09-27 14:41:00,48.0,44.9,28.56,North,10,6.3,6.3,89,0.00,,---,0.00,VWS V13.00,2013-09-27 22:41:00,
2013-09-27 14:46:00,47.7,44.6,28.56,NNE,15,6.3,6.3,89,0.00,,---,0.00,VWS V13.00,2013-09-27 22:46:00,
2013-09-27 14:51:00,47.7,44.3,28.56,NNW,332,5.4,6.3,88,0.00,,---,0.00,VWS V13.00,2013-09-27 22:51:00,
2013-09-27 14:56:00,47.7,44.3,28.56,NNE,24,0.0,8.3,88,0.00,,---,0.00,VWS V13.00,2013-09-27 22:56:00,
2013-09-27 15:01:00,47.7,44.3,28.56,NNE,18,8.1,8.1,88,0.00,,---,0.00,VWS V13.00,2013-09-27 23:01:00,
2013-09-27 15:06:00,47.3,43.9,28.56,NE,35,5.8,12.3,88,0.00,,---,0.00,VWS V13.00,2013-09-27 23:06:00,
2013-09-27 15:11:00,47.3,43.9,28.56,NE,35,5.8,12.3,88,0.00,,---,0.00,VWS V13.00,2013-09-27 23:11:00,
2013-09-27 15:16:00,47.3,43.6,28.59,NE,47,6.7,12.3,87,0.00,,---,0.00,VWS V13.00,2013-09-27 23:16:00,
2013-09-27 15:21:00,47.3,43.6,28.59,NNE,33,10.1,10.1,87,0.00,,---,0.00,VWS V13.00,2013-09-27 23:21:00,
2013-09-27 15:26:00,47.3,43.6,28.59,NNE,22,6.3,12.8,87,0.00,,---,0.00,VWS V13.00,2013-09-27 23:26:00,
2013-09-27 15:31:00,47.3,43.6,28.59,NNE,31,6.7,12.8,87,0.00,,---,0.00,VWS V13.00,2013-09-27 23:31:00,
2013-09-27 15:36:00,47.3,43.6,28.59,NNE,31,6.7,12.8,87,0.00,,---,0.00,VWS V13.00,2013-09-27 23:36:00,
2013-09-27 15:41:00,47.3,43.6,28.59,NE,37,5.8,9.6,87,0.00,,---,0.00,VWS V13.00,2013-09-27 23:41:00,
2013-09-27 15:46:00,47.3,43.6,28.59,East,87,5.8,11.0,87,0.00,,---,0.00,VWS V13.00,2013-09-27 23:46:00,
2013-09-27 15:51:00,47.3,43.6,28.59,NE,34,5.8,11.0,87,0.00,,---,0.00,VWS V13.00,2013-09-27 23:51:00,
2013-09-27 15:56:00,46.9,43.0,28.59,NNE,33,10.5,15.0,86,0.00,,---,0.00,VWS V13.00,2013-09-27 23:56:00,
2013-09-27 16:01:00,46.9,43.0,28.61,North,357,5.8,7.6,86,0.00,,---,0.00,VWS V13.00,2013-09-28 00:01:00,
2013-09-27 16:06:00,46.9,43.0,28.61,NNE,15,12.8,18.8,86,0.00,,---,0.00,VWS V13.00,2013-09-28 00:06:00,
2013-09-27 16:11:00,46.9,43.0,28.61,NE,39,7.6,18.8,86,0.00,,---,0.00,VWS V13.00,2013-09-28 00:11:00,
2013-09-27 16:16:00,46.9,43.0,28.61,NNE,20,11.0,18.8,86,0.00,,---,0.00,VWS V13.00,2013-09-28 00:16:00,
2013-09-27 16:21:00,46.9,43.0,28.61,NNE,20,11.0,11.0,86,0.00,,---,0.00,VWS V13.00,2013-09-28 00:21:00,
2013-09-27 16:26:00,46.9,43.0,28.61,NE,43,13.2,13.2,86,0.00,,---,0.00,VWS V13.00,2013-09-28 00:26:00,
2013-09-27 16:31:00,46.9,43.0,28.61,NNE,18,4.9,13.2,86,0.00,,---,0.00,VWS V13.00,2013-09-28 00:31:00,
2013-09-27 16:36:00,46.9,43.0,28.61,NNE,32,10.5,13.2,86,0.00,,---,0.00,VWS V13.00,2013-09-28 00:36:00,
2013-09-27 16:41:00,46.8,42.8,28.64,ENE,60,3.1,3.1,86,0.00,,---,0.00,VWS V13.00,2013-09-28 00:41:00,
2013-09-27 16:46:00,46.8,42.8,28.64,North,357,3.1,3.1,86,0.00,,---,0.00,VWS V13.00,2013-09-28 00:46:00,
2013-09-27 16:51:00,46.8,42.8,28.64,NE,34,8.7,11.4,86,0.00,,---,0.00,VWS V13.00,2013-09-28 00:51:00,
2013-09-27 16:56:00,46.8,42.8,28.64,NNE,33,10.1,11.4,86,0.00,,---,0.00,VWS V13.00,2013-09-28 00:56:00,
2013-09-27 17:01:00,46.8,42.8,28.67,NE,39,2.7,6.3,86,0.00,,---,0.00,VWS V13.00,2013-09-28 01:01:00,
2013-09-27 17:06:00,46.8,42.8,28.67,NNE,13,7.2,7.2,86,0.00,,---,0.00,VWS V13.00,2013-09-28 01:06:00,
2013-09-27 17:11:00,46.8,42.8,28.67,NNE,30,12.8,12.8,86,0.00,,---,0.00,VWS V13.00,2013-09-28 01:11:00,
2013-09-27 17:16:00,46.8,43.1,28.67,North,6,10.5,12.8,87,0.00,,---,0.00,VWS V13.00,2013-09-28 01:16:00,
2013-09-27 17:21:00,46.8,43.1,28.67,NNE,27,0.0,0.0,87,0.00,,---,0.00,VWS V13.00,2013-09-28 01:21:00,
2013-09-27 17:26:00,46.9,43.3,28.67,NNE,14,0.0,0.0,87,0.00,,---,0.00,VWS V13.00,2013-09-28 01:26:00,
2013-09-27 17:31:00,46.9,43.3,28.67,NE,38,0.0,3.6,87,0.00,,---,0.00,VWS V13.00,2013-09-28 01:31:00,
2013-09-27 17:36:00,46.9,43.3,28.67,East,90,0.0,3.6,87,0.00,,---,0.00,VWS V13.00,2013-09-28 01:36:00,
2013-09-27 17:41:00,46.9,43.3,28.67,NNW,336,0.0,2.7,87,0.00,,---,0.00,VWS V13.00,2013-09-28 01:41:00,
2013-09-27 17:46:00,46.9,43.3,28.67,NNE,31,3.6,3.6,87,0.00,,---,0.00,VWS V13.00,2013-09-28 01:46:00,
2013-09-27 17:51:00,47.1,43.5,28.70,NNE,18,0.0,3.6,87,0.00,,---,0.00,VWS V13.00,2013-09-28 01:51:00,
2013-09-27 17:56:00,47.1,43.5,28.70,NNE,18,0.0,3.6,87,0.00,,---,0.00,VWS V13.00,2013-09-28 01:56:00,
2013-09-27 18:01:00,47.1,43.5,28.70,North,2,0.0,0.0,87,0.00,,---,0.00,VWS V13.00,2013-09-28 02:01:00,
2013-09-27 18:06:00,47.1,43.5,28.70,NNE,23,0.0,0.0,87,0.00,,---,0.00,VWS V13.00,2013-09-28 02:06:00,
2013-09-27 18:11:00,47.1,43.5,28.70,NE,41,0.0,3.6,87,0.00,,---,0.00,VWS V13.00,2013-09-28 02:11:00,
2013-09-27 18:16:00,47.1,43.5,28.73,NNE,29,5.8,5.8,87,0.00,,---,0.00,VWS V13.00,2013-09-28 02:16:00,
2013-09-27 18:21:00,47.3,43.6,28.73,SW,230,0.0,0.0,87,0.00,,---,0.00,VWS V13.00,2013-09-28 02:21:00,
2013-09-27 18:26:00,47.3,43.6,28.73,NNE,29,0.0,4.9,87,0.00,,---,0.00,VWS V13.00,2013-09-28 02:26:00,
2013-09-27 18:31:00,47.3,43.6,28.73,SSE,149,0.0,8.7,87,0.00,,---,0.00,VWS V13.00,2013-09-28 02:31:00,
2013-09-27 18:36:00,47.3,43.6,28.73,NNE,29,0.0,8.7,87,0.00,,---,0.00,VWS V13.00,2013-09-28 02:36:00,
2013-09-27 18:41:00,47.5,43.5,28.73,NNE,31,4.0,4.0,86,0.00,,---,0.00,VWS V13.00,2013-09-28 02:41:00,
2013-09-27 18:46:00,47.5,43.5,28.73,SE,140,0.0,4.0,86,0.00,,---,0.00,VWS V13.00,2013-09-28 02:46:00,
2013-09-27 18:51:00,47.3,43.3,28.73,North,357,5.8,5.8,86,0.00,,---,0.00,VWS V13.00,2013-09-28 02:51:00,
2013-09-27 18:56:00,47.3,43.3,28.73,SE,129,4.9,5.8,86,0.00,,---,0.00,VWS V13.00,2013-09-28 02:56:00,
2013-09-27 19:01:00,47.3,43.0,28.73,SE,129,4.9,4.9,85,0.00,,---,0.00,VWS V13.00,2013-09-28 03:01:00,
2013-09-27 19:06:00,47.3,43.0,28.76,SE,129,4.9,4.9,85,0.00,,---,0.00,VWS V13.00,2013-09-28 03:06:00,
2013-09-27 19:11:00,47.3,43.0,28.76,SE,140,0.0,4.9,85,0.00,,---,0.00,VWS V13.00,2013-09-28 03:11:00,
2013-09-27 19:16:00,47.3,43.0,28.76,North,10,4.0,4.9,85,0.00,,---,0.00,VWS V13.00,2013-09-28 03:16:00,
2013-09-27 19:21:00,47.3,43.0,28.76,NNE,33,0.0,0.0,85,0.00,,---,0.00,VWS V13.00,2013-09-28 03:21:00,
2013-09-27 19:26:00,47.1,42.8,28.76,NNE,33,0.0,0.0,85,0.00,,---,0.00,VWS V13.00,2013-09-28 03:26:00,
2013-09-27 19:31:00,47.1,42.8,28.79,NNE,21,0.0,0.0,85,0.00,,---,0.00,VWS V13.00,2013-09-28 03:31:00,
2013-09-27 19:36:00,47.1,42.8,28.79,NE,35,10.5,10.5,85,0.00,,---,0.00,VWS V13.00,2013-09-28 03:36:00,
2013-09-27 19:41:00,47.1,42.8,28.79,SSE,149,0.0,0.0,85,0.00,,---,0.00,VWS V13.00,2013-09-28 03:41:00,
2013-09-27 19:46:00,47.1,42.8,28.79,South,171,0.0,0.0,85,0.00,,---,0.00,VWS V13.00,2013-09-28 03:46:00,
2013-09-27 19:51:00,47.1,42.8,28.79,NNE,31,0.0,0.0,85,0.00,,---,0.00,VWS V13.00,2013-09-28 03:51:00,
2013-09-27 19:56:00,47.1,42.8,28.79,North,353,0.0,0.0,85,0.00,,---,0.00,VWS V13.00,2013-09-28 03:56:00,
2013-09-27 20:01:00,47.1,42.8,28.79,East,81,2.7,2.7,85,0.00,,---,0.00,VWS V13.00,2013-09-28 04:01:00,
2013-09-27 20:02:00,47.1,42.8,28.79,North,10,0.0,2.7,85,0.00,,---,0.00,VWS V13.00,2013-09-28 04:02:00,
2013-09-27 20:07:00,47.1,42.8,28.79,NNE,32,0.0,5.8,85,0.00,,---,0.00,VWS V13.00,2013-09-28 04:07:00,
2013-09-27 20:12:00,47.3,43.0,28.79,NNE,18,0.0,5.8,85,0.00,,---,0.00,VWS V13.00,2013-09-28 04:12:00,
2013-09-27 20:17:00,47.3,43.0,28.79,North,9,0.0,5.8,85,0.00,,---,0.00,VWS V13.00,2013-09-28 04:17:00,
2013-09-27 20:22:00,47.3,43.0,28.82,NNE,19,0.0,0.0,85,0.00,,---,0.00,VWS V13.00,2013-09-28 04:22:00,
2013-09-27 20:27:00,47.3,43.0,28.82,East,88,0.0,5.8,85,0.00,,---,0.00,VWS V13.00,2013-09-28 04:27:00,
2013-09-27 20:32:00,47.3,43.0,28.82,North,349,0.0,5.8,85,0.00,,---,0.00,VWS V13.00,2013-09-28 04:32:00,
2013-09-27 20:37:00,47.3,43.0,28.82,East,93,0.0,5.8,85,0.00,,---,0.00,VWS V13.00,2013-09-28 04:37:00,
2013-09-27 20:42:00,47.5,43.2,28.82,NNE,27,0.0,0.0,85,0.00,,---,0.00,VWS V13.00,2013-09-28 04:42:00,
2013-09-27 20:47:00,47.5,43.2,28.82,East,99,0.0,5.8,85,0.00,,---,0.00,VWS V13.00,2013-09-28 04:47:00,
2013-09-27 20:52:00,47.5,43.2,28.82,ESE,120,0.0,9.6,85,0.00,,---,0.00,VWS V13.00,2013-09-28 04:52:00,
2013-09-27 20:57:00,47.5,42.9,28.82,NNE,19,3.6,9.6,84,0.00,,---,0.00,VWS V13.00,2013-09-28 04:57:00,
2013-09-27 21:02:00,47.5,42.9,28.85,ENE,74,0.0,8.1,84,0.00,,---,0.00,VWS V13.00,2013-09-28 05:02:00,
2013-09-27 21:07:00,47.5,42.9,28.85,ESE,102,0.0,8.1,84,0.00,,---,0.00,VWS V13.00,2013-09-28 05:07:00,
2013-09-27 21:12:00,47.5,42.9,28.85,NW,311,0.0,8.3,84,0.00,,---,0.00,VWS V13.00,2013-09-28 05:12:00,
2013-09-27 21:17:00,47.7,42.8,28.85,NE,51,2.2,8.3,83,0.00,,---,0.00,VWS V13.00,2013-09-28 05:17:00,
2013-09-27 21:22:00,47.7,42.8,28.85,SW,230,9.6,9.6,83,0.00,,---,0.00,VWS V13.00,2013-09-28 05:22:00,
2013-09-27 21:27:00,47.7,42.4,28.85,NE,47,5.4,9.6,82,0.00,,---,0.00,VWS V13.00,2013-09-28 05:27:00,
2013-09-27 21:32:00,47.7,42.4,28.85,ENE,72,0.0,9.6,82,0.00,,---,0.00,VWS V13.00,2013-09-28 05:32:00,
2013-09-27 21:37:00,47.7,42.4,28.85,ESE,113,0.0,9.6,82,0.00,,---,0.00,VWS V13.00,2013-09-28 05:37:00,
2013-09-27 21:42:00,47.7,42.4,28.85,NE,54,4.9,5.8,82,0.00,,---,0.00,VWS V13.00,2013-09-28 05:42:00,
2013-09-27 21:47:00,47.7,42.1,28.85,South,173,3.6,5.8,81,0.00,,---,0.00,VWS V13.00,2013-09-28 05:47:00,
2013-09-27 21:52:00,47.7,41.8,28.85,ENE,78,0.0,5.8,80,0.00,,---,0.00,VWS V13.00,2013-09-28 05:52:00,
2013-09-27 21:57:00,47.8,41.7,28.85,NNE,24,8.3,8.3,79,0.00,,---,0.00,VWS V13.00,2013-09-28 05:57:00,
2013-09-27 22:02:00,47.8,41.3,28.85,NNE,29,10.5,10.5,78,0.00,,---,0.00,VWS V13.00,2013-09-28 06:02:00,
2013-09-27 22:07:00,48.0,41.2,28.85,NNW,348,4.9,10.5,77,0.00,,---,0.00,VWS V13.00,2013-09-28 06:07:00,
2013-09-27 22:12:00,47.8,41.0,28.85,SSE,149,0.0,10.5,77,0.00,,---,0.00,VWS V13.00,2013-09-28 06:12:00,
2013-09-27 22:17:00,47.8,41.0,28.88,NW,313,0.0,10.5,77,0.00,,---,0.00,VWS V13.00,2013-09-28 06:17:00,
2013-09-27 22:22:00,47.8,41.0,28.88,NW,321,0.0,3.6,77,0.00,,---,0.00,VWS V13.00,2013-09-28 06:22:00,
2013-09-27 22:27:00,47.8,41.0,28.88,NNE,28,3.1,3.6,77,0.00,,---,0.00,VWS V13.00,2013-09-28 06:27:00,
2013-09-27 22:32:00,47.8,41.0,28.88,ESE,121,6.3,6.3,77,0.00,,---,0.00,VWS V13.00,2013-09-28 06:32:00,
2013-09-27 22:37:00,48.0,41.2,28.88,East,98,4.0,6.3,77,0.00,,---,0.00,VWS V13.00,2013-09-28 06:37:00,
2013-09-27 22:42:00,48.0,40.8,28.88,East,89,4.9,4.9,76,0.00,,---,0.00,VWS V13.00,2013-09-28 06:42:00,
2013-09-27 22:47:00,48.2,40.7,28.88,SSE,150,0.0,4.9,75,0.00,,---,0.00,VWS V13.00,2013-09-28 06:47:00,
2013-09-27 22:52:00,48.4,40.1,28.88,SSE,157,2.7,7.6,73,0.00,,---,0.00,VWS V13.00,2013-09-28 06:52:00,
2013-09-27 22:57:00,48.6,39.2,28.91,South,184,6.3,7.6,70,0.00,,---,0.00,VWS V13.00,2013-09-28 06:57:00,
2013-09-27 23:02:00,48.7,39.0,28.91,SSE,159,0.0,6.3,69,0.00,,---,0.00,VWS V13.00,2013-09-28 07:02:00,
2013-09-27 23:07:00,48.7,39.0,28.91,NW,325,0.0,6.3,69,0.00,,---,0.00,VWS V13.00,2013-09-28 07:07:00,
2013-09-27 23:12:00,48.7,39.0,28.91,ESE,115,5.8,8.3,69,0.00,,---,0.00,VWS V13.00,2013-09-28 07:12:00,
2013-09-27 23:17:00,48.9,38.5,28.91,West,279,0.0,8.3,67,0.00,,---,0.00,VWS V13.00,2013-09-28 07:17:00,
2013-09-27 23:22:00,48.9,37.7,28.91,South,182,4.9,4.9,65,0.00,,---,0.00,VWS V13.00,2013-09-28 07:22:00,
2013-09-27 23:27:00,48.9,37.3,28.91,NW,317,4.5,4.9,64,0.00,,---,0.00,VWS V13.00,2013-09-28 07:27:00,
2013-09-27 23:32:00,49.1,37.5,28.91,NW,321,4.9,5.4,64,0.00,,---,0.00,VWS V13.00,2013-09-28 07:32:00,
2013-09-27 23:37:00,49.1,37.5,28.91,East,98,10.5,10.5,64,0.00,,---,0.00,VWS V13.00,2013-09-28 07:37:00,
2013-09-27 23:42:00,48.9,36.5,28.91,South,173,2.2,7.6,62,0.00,,---,0.00,VWS V13.00,2013-09-28 07:42:00,
2013-09-27 23:47:00,49.1,36.2,28.91,East,96,0.0,7.6,61,0.00,,---,0.00,VWS V13.00,2013-09-28 07:47:00,
2013-09-27 23:52:00,48.9,36.1,28.91,North,2,2.7,7.6,61,0.00,,---,0.00,VWS V13.00,2013-09-28 07:52:00,
2013-09-27 23:57:00,48.9,36.5,28.91,SSE,162,0.0,7.6,62,0.00,,---,0.00,VWS V13.00,2013-09-28 07:57:00,